Weather History for KBQK - October, 2013

Change the Weather History Date:

Monday, October 14, 2013

  Actual Average (KSSI) Record (KSSI)
Temperature  
Mean Temperature 70 °F 71 °F  
Max Temperature 75 °F 78 °F 90 °F (1986)
Min Temperature 64 °F 63 °F 43 °F (1977)
Degree Days  
Heating Degree Days 0 1  
Month to date heating degree days 4  
Since 1 July heating degree days 4  
Cooling Degree Days 4 6  
Month to date cooling degree days 113  
Year to date cooling degree days 2484  
Growing Degree Days 20 (Base 50)    
Moisture  
Dew Point 64 °F    
Average Humidity 86    
Maximum Humidity 100    
Minimum Humidity 69    
Precipitation  
Precipitation 0.00 in 0.16 in 2.25 in (1964)
Month to date precipitation 2.48  
Year to date precipitation 38.35  
Snow  
Snow 0.00 in - 0.00 in ()
Month to date snowfall  
Since 1 July snowfall  
Since 1 September snowfall  
Snow Depth -    
Sea Level Pressure  
Sea Level Pressure 30.08 in    
Wind  
Wind Speed 5 mph (North)    
Max Wind Speed 10 mph    
Max Gust Speed 18 mph    
Visibility 10 miles    
Events      
T = Trace of Precipitation, MM = Missing Value Source: NWS Daily Summary

Daily Weather History Graph

Daily Weather History Graph

Search for Another Location

Airport or City:

Trip Planner

Search our weather history database for the weather conditions in past years. The results will help you decide how hot, cold, wet, or windy it might be!

Date:

Astronomy

Oct. 14, 2013 Rise Set
Actual Time 7:28 AM EDT 6:54 PM EDT
Civil Twilight 7:03 AM EDT 7:19 PM EDT
Nautical Twilight 6:35 AM EDT 7:47 PM EDT
Astronomical Twilight 6:07 AM EDT 8:15 PM EDT
Moon 4:09 PM EDT (10/14) 3:00 AM EDT (10/14)
Length of Visible Light 12h 15m
Length of Day
11h 26m
Waxing Gibbous, 79% of the Moon is Illuminated
Oct 14
Waxing Gibbous
Oct 18
Full
Oct 26
Last Quarter
Nov 3
New
Nov 10
First Quarter

Hourly Weather History & Observations

Time (EDT) Temp. Dew Point Humidity Pressure Visibility Wind Dir Wind Speed Gust Speed Precip Events Conditions
12:15 AM 68.0 °F 64.4 °F 88% 30.11 in 10.0 mi North 4.6 mph - N/A   Clear
12:35 AM 68.0 °F 64.4 °F 88% 30.10 in 10.0 mi North 4.6 mph - N/A   Clear
12:55 AM 68.0 °F 64.4 °F 88% 30.10 in 10.0 mi North 3.5 mph - N/A   Clear
1:15 AM 66.2 °F 64.4 °F 94% 30.09 in 10.0 mi North 3.5 mph - N/A   Clear
1:35 AM 66.2 °F 64.4 °F 94% 30.09 in 10.0 mi North 3.5 mph - N/A   Clear
1:55 AM 64.4 °F 64.4 °F 100% 30.09 in 10.0 mi North 3.5 mph - N/A   Clear
2:15 AM 64.4 °F 64.4 °F 100% 30.09 in 10.0 mi North 3.5 mph - N/A   Clear
2:35 AM 64.4 °F 64.4 °F 100% 30.09 in 10.0 mi NNW 3.5 mph - N/A   Clear
2:55 AM 64.4 °F 64.4 °F 100% 30.08 in 10.0 mi North 3.5 mph - N/A   Scattered Clouds
3:15 AM 64.4 °F 62.6 °F 94% 30.08 in 10.0 mi NNW 4.6 mph - N/A   Scattered Clouds
3:35 AM 64.4 °F 62.6 °F 94% 30.08 in 10.0 mi NNW 3.5 mph - N/A   Clear
3:55 AM 64.4 °F 62.6 °F 94% 30.08 in 10.0 mi North 3.5 mph - N/A   Clear
4:15 AM 64.4 °F 62.6 °F 94% 30.08 in 10.0 mi NNW 3.5 mph - N/A   Clear
4:35 AM 64.4 °F 62.6 °F 94% 30.08 in 10.0 mi NNW 3.5 mph - N/A   Scattered Clouds
4:55 AM 64.4 °F 62.6 °F 94% 30.08 in 10.0 mi NNW 3.5 mph - N/A   Scattered Clouds
5:15 AM 64.4 °F 62.6 °F 94% 30.08 in 10.0 mi NNW 4.6 mph - N/A   Scattered Clouds
5:35 AM 64.4 °F 62.6 °F 94% 30.07 in 10.0 mi NNW 4.6 mph - N/A   Clear
5:55 AM 64.4 °F 64.4 °F 100% 30.08 in 10.0 mi NNW 5.8 mph - N/A   Scattered Clouds
6:15 AM 64.4 °F 64.4 °F 100% 30.08 in 10.0 mi NNW 5.8 mph - N/A   Mostly Cloudy
6:35 AM 64.4 °F 64.4 °F 100% 30.08 in 10.0 mi North 5.8 mph - N/A   Overcast
6:55 AM 64.4 °F 64.4 °F 100% 30.08 in 10.0 mi NNW 4.6 mph - N/A   Mostly Cloudy
7:15 AM 64.4 °F 64.4 °F 100% 30.08 in 10.0 mi NNW 5.8 mph - N/A   Scattered Clouds
7:35 AM 64.4 °F 64.4 °F 100% 30.09 in 10.0 mi NNW 6.9 mph - N/A   Mostly Cloudy
7:55 AM 66.2 °F 64.4 °F 94% 30.09 in 10.0 mi North 5.8 mph - N/A   Mostly Cloudy
8:15 AM 68.0 °F 64.4 °F 88% 30.10 in 10.0 mi North 5.8 mph - N/A   Overcast
8:35 AM 68.0 °F 64.4 °F 88% 30.11 in 10.0 mi North 8.1 mph - N/A   Overcast
8:55 AM 68.0 °F 64.4 °F 88% 30.11 in 10.0 mi North 8.1 mph - N/A   Overcast
9:15 AM 68.0 °F 64.4 °F 88% 30.11 in 10.0 mi North 8.1 mph - N/A   Overcast
9:35 AM 68.0 °F 66.2 °F 94% 30.11 in 10.0 mi North 8.1 mph - N/A   Overcast
9:55 AM 69.8 °F 66.2 °F 88% 30.11 in 10.0 mi North 8.1 mph - N/A   Overcast
10:15 AM 71.6 °F 66.2 °F 83% 30.11 in 10.0 mi North 8.1 mph - N/A   Overcast
10:35 AM 71.6 °F 66.2 °F 83% 30.11 in 10.0 mi NNE 10.4 mph - N/A   Overcast
10:55 AM 69.8 °F 66.2 °F 88% 30.11 in 10.0 mi North 8.1 mph - N/A   Overcast
11:15 AM 71.6 °F 66.2 °F 83% 30.11 in 10.0 mi North 5.8 mph - N/A   Overcast
11:35 AM 73.4 °F 64.4 °F 73% 30.11 in 10.0 mi NNE 6.9 mph - N/A   Overcast
11:55 AM 75.2 °F 66.2 °F 73% 30.11 in 10.0 mi North 5.8 mph 18.4 mph N/A   Overcast
12:15 PM 73.4 °F 64.4 °F 73% 30.10 in 10.0 mi North 6.9 mph - N/A   Overcast
12:35 PM 73.4 °F 64.4 °F 73% 30.09 in 10.0 mi NNE 9.2 mph 16.1 mph N/A   Overcast
12:55 PM 75.2 °F 64.4 °F 69% 30.09 in 10.0 mi North 9.2 mph - N/A   Overcast
1:15 PM 73.4 °F 64.4 °F 73% 30.09 in 10.0 mi North 10.4 mph - N/A   Overcast
1:35 PM 73.4 °F 64.4 °F 73% 30.08 in 10.0 mi NNE 6.9 mph - N/A   Overcast
1:55 PM 73.4 °F 64.4 °F 73% 30.07 in 10.0 mi NNE 6.9 mph - N/A   Overcast
2:15 PM 73.4 °F 64.4 °F 73% 30.07 in 10.0 mi North 9.2 mph - N/A   Overcast
2:35 PM 71.6 °F 64.4 °F 78% 30.06 in 10.0 mi North 4.6 mph - N/A   Overcast
2:55 PM 73.4 °F 66.2 °F 78% 30.05 in 10.0 mi North 5.8 mph - N/A   Overcast
3:15 PM 71.6 °F 64.4 °F 78% 30.05 in 10.0 mi North 5.8 mph - N/A   Overcast
3:35 PM 71.6 °F 64.4 °F 78% 30.05 in 10.0 mi North 3.5 mph - N/A   Overcast
3:55 PM 71.6 °F 64.4 °F 78% 30.06 in 10.0 mi North 6.9 mph - N/A   Overcast
4:15 PM 71.6 °F 64.4 °F 78% 30.06 in 10.0 mi North 4.6 mph - N/A   Overcast
4:35 PM 71.6 °F 66.2 °F 83% 30.05 in 10.0 mi NNW 6.9 mph - N/A   Overcast
4:55 PM 71.6 °F 64.4 °F 78% 30.05 in 10.0 mi NNW 9.2 mph - N/A   Overcast
5:15 PM 71.6 °F 64.4 °F 78% 30.05 in 10.0 mi North 4.6 mph - N/A   Overcast
5:35 PM 71.6 °F 64.4 °F 78% 30.05 in 10.0 mi NNW 8.1 mph - N/A   Overcast
5:55 PM 71.6 °F 64.4 °F 78% 30.05 in 10.0 mi North 5.8 mph - N/A   Overcast
6:15 PM 71.6 °F 64.4 °F 78% 30.05 in 10.0 mi NNW 5.8 mph - N/A   Overcast
6:35 PM 69.8 °F 64.4 °F 83% 30.05 in 10.0 mi North 5.8 mph - N/A   Overcast
6:55 PM 69.8 °F 64.4 °F 83% 30.06 in 10.0 mi North 3.5 mph - N/A   Overcast
7:15 PM 69.8 °F 64.4 °F 83% 30.05 in 10.0 mi NNW 4.6 mph - N/A   Overcast
7:35 PM 69.8 °F 64.4 °F 83% 30.05 in 10.0 mi NNW 4.6 mph - N/A   Overcast
7:55 PM 69.8 °F 64.4 °F 83% 30.06 in 10.0 mi NNW 4.6 mph - N/A   Overcast
8:15 PM 69.8 °F 64.4 °F 83% 30.05 in 10.0 mi NNW 5.8 mph - N/A   Overcast
8:35 PM 69.8 °F 64.4 °F 83% 30.06 in 10.0 mi NNW 5.8 mph - N/A   Overcast
8:55 PM 69.8 °F 64.4 °F 83% 30.06 in 10.0 mi North 5.8 mph - N/A   Overcast
9:15 PM 69.8 °F 64.4 °F 83% 30.06 in 10.0 mi North 6.9 mph - N/A   Overcast
9:35 PM 69.8 °F 64.4 °F 83% 30.07 in 10.0 mi North 6.9 mph - N/A   Overcast
9:55 PM 69.8 °F 64.4 °F 83% 30.07 in 10.0 mi North 8.1 mph - N/A   Overcast
10:15 PM 69.8 °F 64.4 °F 83% 30.08 in 10.0 mi North 9.2 mph - N/A   Overcast
10:35 PM 69.8 °F 64.4 °F 83% 30.08 in 10.0 mi North 8.1 mph - N/A   Overcast
10:55 PM 69.8 °F 64.4 °F 83% 30.08 in 10.0 mi North 6.9 mph - N/A   Overcast
11:15 PM 69.8 °F 64.4 °F 83% 30.08 in 10.0 mi North 5.8 mph - N/A   Overcast
11:35 PM 69.8 °F 64.4 °F 83% 30.08 in 10.0 mi North 6.9 mph - N/A   Overcast
11:55 PM 69.8 °F 64.4 °F 83% 30.07 in 10.0 mi North 6.9 mph - N/A   Overcast